EW5024 Weather Reports


Display with metric or nautical units.
time (UTC)temp
F
wind
direction
speed
MPH
gust
MPH
rain 1hr
in
rain 24hr
in
rain mn
in
humidity
%
barometer
mb
20260502213012 62 202 2.0 5.0 0.00 0.00 0.00 48 1021.8
20260502211512 63 229 2.0 4.0 0.00 0.00 0.00 46 1021.7
20260502210011 65 207 1.0 12.0 0.00 0.00 0.00 44 1021.7
20260502204511 65 87 5.0 12.0 0.00 0.00 0.00 43 1021.6
20260502203010 65 120 3.0 9.0 0.00 0.00 0.00 42 1021.5
20260502201510 66 166 2.0 9.0 0.00 0.00 0.00 40 1021.4
20260502200009 69 167 6.0 14.0 0.00 0.00 0.00 35 1021.4
20260502194509 69 189 8.0 16.0 0.00 0.00 0.00 35 1021.2
20260502193008 69 196 10.0 17.0 0.00 0.00 0.00 34 1020.9
20260502191507 69 224 10.0 17.0 0.00 0.00 0.00 34 1020.7
20260502190012 69 140 8.0 19.0 0.00 0.00 0.00 34 1020.5
20260502184518 70 182 10.0 21.0 0.00 0.00 0.00 34 1020.4
20260502183014 70 196 10.0 21.0 0.00 0.00 0.00 34 1020.1
20260502181505 70 208 8.0 24.0 0.00 0.00 0.00 34 1019.9
20260502163105 71 184 8.0 18.0 0.00 0.00 0.00 34 1019.5
20260502161623 72 145 8.0 20.0 0.00 0.00 0.00 34 1019.6
20260502151604 74 200 10.0 19.0 0.00 0.00 0.00 32 1020.0
20260502123034 76 216 5.0 11.0 0.00 0.00 0.00 30 1022.3
20260502121525 75 194 8.0 13.0 0.00 0.00 0.00 31 1022.7
20260502114520 74 123 10.0 14.0 0.00 0.00 0.00 31 1023.2
20260502113016 73 180 5.0 10.0 0.00 0.00 0.00 34 1023.4
20260502111518 72 286 0.0 4.0 0.00 0.00 0.00 39 1023.8
20260502110013 70 221 3.0 9.0 0.00 0.00 0.00 41 1024.2
20260502104504 68 281 3.0 7.0 0.00 0.00 0.00 43 1024.7
20260502103103 67 196 2.0 7.0 0.00 0.00 0.00 45 1025.0
20260502101557 67 267 3.0 8.0 0.00 0.00 0.00 45 1025.3
20260502071520 55 338 3.0 5.0 0.00 0.00 0.00 64 1028.3
20260502070019 54 336 2.0 6.0 0.00 0.00 0.00 65 1028.5
20260502064519 53 28 2.0 5.0 0.00 0.00 0.00 68 1028.6
20260502063026 52 333 3.0 5.0 0.00 0.00 0.00 72 1028.6
20260502061518 51 329 4.0 6.0 0.00 0.00 0.00 73 1028.8
20260502060017 50 348 3.0 5.0 0.00 0.00 0.00 76 1029.0
20260502054517 49 331 1.0 3.0 0.00 0.00 0.00 78 1029.1
20260502053015 47 339 1.0 2.0 0.00 0.00 0.00 79 1029.1
20260502051514 46 339 0.0 0.0 0.00 0.00 0.00 80 1029.1
20260502050014 46 339 0.0 0.0 0.00 0.00 0.00 80 1029.0
20260502044512 45 339 0.0 0.0 0.00 0.00 0.00 79 1029.0
20260502043011 46 339 0.0 0.0 0.00 0.00 0.00 79 1028.9
20260502041510 46 339 0.0 0.0 0.00 0.00 0.00 79 1028.8
20260502040007 46 342 0.0 1.0 0.00 0.00 0.00 78 1028.7
20260502034508 46 342 0.0 0.0 0.00 0.00 0.00 77 1028.5
20260502033003 47 342 0.0 0.0 0.00 0.00 0.00 76 1028.5
20260502031502 47 341 0.0 0.0 0.00 0.00 0.00 77 1028.3
20260502030000 46 340 0.0 0.0 0.00 0.00 0.00 76 1028.4
20260502024559 47 340 0.0 0.0 0.00 0.00 0.00 76 1028.3
20260502023059 47 340 1.0 2.0 0.00 0.00 0.00 76 1028.3
20260502021557 47 350 0.0 0.0 0.00 0.00 0.00 75 1028.3
20260502020059 48 350 0.0 2.0 0.00 0.00 0.00 74 1028.2
20260502014553 48 355 0.0 0.0 0.00 0.00 0.00 72 1028.2
20260502013050 49 355 1.0 3.0 0.00 0.00 0.00 72 1028.1
20260502011550 50 325 2.0 4.0 0.00 0.00 0.00 69 1028.1
20260502010044 50 5 1.0 3.0 0.00 0.00 0.00 70 1028.1
20260502004542 50 355 0.0 3.0 0.00 0.00 0.00 69 1028.2
20260502003039 52 5 2.0 4.0 0.00 0.00 0.00 63 1028.1
20260502001541 52 180 2.0 6.0 0.00 0.00 0.00 63 1028.2
20260502000038 50 78 0.0 0.0 0.00 0.00 0.00 68 1028.2
20260501234535 51 298 0.0 3.0 0.00 0.00 0.00 66 1028.3
20260501233032 53 355 1.0 3.0 0.00 0.00 0.00 62 1028.1
20260501231631 53 355 0.0 1.0 0.00 0.00 0.00 62 1028.0
20260501230029 53 355 0.0 4.0 0.00 0.00 0.00 62 1028.0
20260501224524 55 315 1.0 4.0 0.00 0.00 0.00 57 1027.8
20260501223026 56 159 3.0 5.0 0.00 0.00 0.00 54 1027.7
20260501221523 56 192 2.0 4.0 0.00 0.00 0.00 54 1027.6
20260501220016 56 194 2.0 4.0 0.00 0.00 0.00 53 1027.4
20260501214515 57 209 1.0 6.0 0.00 0.00 0.00 51 1027.3